Regional Weather Roundup
Issued by NWS

Home | Current Version | Previous Version | Graphics & Text | Print | Product List | Glossary On
Versions: 1 2 3 4 5 6 7 8 9 10 11 12 13 14 15 16 17 18 19 20 21 22 23 24 25 26 27 28 29 30 31 32 33 34 35 36 37 38 39 40 41 42 43 44 45 46 47 48 49 50
017
ASUS43 KDMX 132303
RWRIA

WEATHER ROUNDUP FOR IOWA
NATIONAL WEATHER SERVICE DES MOINES IA
500 PM CST SAT FEB 13 2016

NOTE: "FAIR" INDICATES FEW OR NO CLOUDS BELOW 12,000 FEET WITH NO
SIGNIFICANT WEATHER AND/OR OBSTRUCTIONS TO VISIBILITY.

* - THESE STATIONS ARE NOT NWS STATIONS...THUS NOT UNDER NWS
QUALITY CONTROL.  THEY ALSO DO NOT REPORT WEATHER SUCH
AS PRECIPITATION OR FOG.

IAZ001>003-012>014-020>022-031>034-043>046-140000-
   NORTHWEST IOWA

CITY           SKY/WX    TMP DP  RH WIND       PRES   REMARKS
CARROLL *      PTCLDY    12   5  73 SE14      30.36F WCI  -3
CHEROKEE *     CLOUDY    10   3  72 SE13      30.33F WCI  -5
DENISON *      CLOUDY    12   5  73 SE10      30.32F HAZE    WCI  -1
LE MARS *      LGT SNOW  12   7  79 SE17      30.31F WCI  -5
ORANGE CITY *  LGT SNOW  10   5  79 SE13G18   30.29F WCI  -5
SHELDON *      CLOUDY     9   3  78 SE16      30.29F WCI  -9
SIOUX CITY     MIX PCPN  15   4  61 SE17      30.30F WCI  -1
SPENCER        CLOUDY     8  -2  63 SE16      30.33F WCI -10
STORM LAKE *   PTCLDY     9   1  72 SE13G21   30.32F WCI  -7
$$

IAZ055>058-069>071-079>083-090>094-140000-
   SOUTHWEST IOWA

CITY           SKY/WX    TMP DP  RH WIND       PRES   REMARKS
ATLANTIC *     LGT SNOW  16   5  62 SE10      30.35S WCI   3
AUDUBON *      PTCLDY    14   5  67 SE10      30.34F WCI   1
CLARINDA *     CLOUDY    18   0  45 SE10      30.38F WCI   6
COUNCIL BLFS * CLOUDY    18   3  53 SE16      30.31F WCI   3
CRESTON *      CLOUDY    16   1  53 SE14      30.37F WCI   1
HARLAN  *      CLOUDY    16   7  67 SE9       30.37F WCI   4
LAMONI         FLURRIES  16   2  54 SE9G16    30.38F WCI   4
RED OAK *      CLOUDY    18   0  45 SE13      30.36F WCI   4
SHENANDOAH *   CLOUDY    19   1  45 SE14      30.36F WCI   6
$$

IAZ047>049-059>061-072>074-084-140000-
   CENTRAL IOWA

CITY           SKY/WX    TMP DP  RH WIND       PRES   REMARKS
AMES           CLOUDY    13   1  59 SE9       30.42F WCI   1
ANKENY *       CLOUDY    14   0  52 SE10      30.43F WCI   1
BOONE *        CLOUDY    12   1  62 SE15      30.39F WCI  -4
CHARITON *     CLOUDY    16   0  48 E13       30.41F WCI   2
DES MOINES     CLOUDY    15  -2  46 SE9       30.42F WCI   3
GRINNELL*      CLOUDY    15   3  57 E8        30.43F WCI   5
KNOXVILLE *    CLOUDY    16   0  48 SE9       30.42F WCI   4
MARSHALLTOWN   CLOUDY    13   1  59 SE10      30.43F WCI   0
NEWTON *       CLOUDY    14   1  57 SE10      30.43F WCI   1
PELLA *        MOCLDY    16   3  57 SE9       30.46F WCI   4
$$

IAZ004>006-015-016-023>025-035-036-140000-
   NORTH CENTRAL IOWA

CITY           SKY/WX    TMP DP  RH WIND       PRES   REMARKS
ALGONA *       CLOUDY     9   0  66 SE13G20   30.36F WCI  -7
CLARION *      CLOUDY     9   0  66 SE14      30.41F WCI  -8
ESTHERVILLE    CLOUDY     8   0  69 SE15      30.34F WCI  -9
FORT DODGE *   CLOUDY    10   0  61 SE10      30.39F WCI  -3
MASON CITY     CLOUDY     5  -3  69 SE12      30.43F WCI -11
FOREST CITY *  CLOUDY     9   0  66 SE10      30.40F WCI  -6
WEBSTER CITY * CLOUDY    10   1  67 SE12      30.39F WCI  -4
IOWA FALLS *   CLOUDY    11   2  65 E10       30.43F WCI  -2
$$

IAZ007>011-017>019-026>030-037>042-050>054-066-140000-
   NORTHEAST IOWA

CITY           SKY/WX    TMP DP  RH WIND       PRES   REMARKS
CEDAR RAPIDS   CLOUDY    16  -2  45 E7        30.47F WCI   6
CHARLES CITY * CLOUDY     7  -8  51 SE7       30.45S WCI  -5
CLINTON *      PTCLDY    16  -4  41 CALM      30.51F
DECORAH *      CLEAR      5  -9  51 S5        30.45S WCI  -4
DUBUQUE        CLOUDY    12  -6  44 CALM      30.47F
MONTICELLO *   CLEAR     14  -6  41 CALM      30.49F
OELWEIN *      CLEAR      7  -6  56 CALM      30.47F
WATERLOO       CLOUDY     8  -4  58 E9        30.47F WCI  -5
$$

IAZ064-065-067-068-078-140000-
   EAST CENTRAL IOWA

CITY           SKY/WX    TMP DP  RH WIND       PRES   REMARKS
DAVENPORT      CLOUDY    16  -7  35 E5        30.49F WCI   9
IOWA CITY      CLOUDY    17  -6  35 SE6       30.51F WCI   9
MT. PLEASANT * CLOUDY    21   0  39 E5        30.49F WCI  15
MUSCATINE *    PTCLDY    19  -6  32 E5        30.52F WCI  13
QUAD CITIES    CLOUDY    18  -7  32 CALM      30.50F
$$

IAZ062-063-075>077-085>089-095>099-140000-
   SOUTHEAST IOWA

CITY           SKY/WX    TMP DP  RH WIND       PRES   REMARKS
BURLINGTON     CLOUDY    18  -1  43 E5        30.49F WCI  11
FAIRFIELD *    CLOUDY    19  -2  38 E9        30.46F WCI   9
FORT MADISON * CLOUDY    18   1  49 E5        30.49F WCI  11
KEOKUK *       CLOUDY    18   3  53 E5        30.48F WCI  11
OSKALOOSA *    CLOUDY    16   3  57 SE10      30.46F WCI   3
OTTUMWA        CLOUDY    16   3  56 SE9       30.45F WCI   4
WASHINGTON *   CLOUDY    18  -2  41 SE7       30.50F WCI   8
$$

ABBREVIATIONS USED IN REMARKS
   TC - TEMPERATURES IN CELSIUS
  WCI - WIND CHILL INDEX
   HX - HEAT INDEX
  VSB - VISIBILITY
$$





USA.gov is the U.S. government's official web portal to all federal, state and local government web resources and services.